Location: Newark
(35.8833°N, 14.5000°E)
Time: 00:50:04
(UTC+00:00)

Altair - Pass Details

Date: 20 November 2019
Orbit: 1502 x 1682 km, 47.2° (Epoch: 09 December)

Event Time Altitude Azimuth Distance (km) Brightness Sun altitude
Rises 03:36:11 0° 272° (W) 4,637 - -25.5°
Reaches altitude 10° 03:39:26 10° 279° (W) 3,651 - -24.8°
Exits shadow 03:44:49 33° 306° (NW) 2,301 7.9 -23.8°
Maximum altitude 03:48:04 44° 349° (N) 1,991 7.9 -23.1°
Drops below altitude 10° 03:56:49 10° 60° (ENE) 3,698 10.2 -21.4°
Sets 04:00:09 0° 67° (ENE) 4,702 11.0 -20.7°
